EHI
0 0 0 0 0 0 0 0 0 0 0 0 0 0 0 0 0 0 0 0 0 0 0 0 0 0 0 0 0 0 0 0 0 0 0 0 0 0
0 0 0 0 0 0 0 0 0 0 0 0 0 0 0 0 0 0 0 0 0 0 0 0 0 0 0 0 0 0 0 0 0 0 0 0 0 0
0 0 0 0 0 0 0 0 0 0 0 0 0 0 0 0 0 0 0 0 0 0 0 0 0 0 0 0 0 0 0 0 0 0 0 0 0 0
0 0 0 0 0 0 0 0 0 0 0 0 0 0 0 0 0 0 0 0 0 0 0 0 0 0 0 0 0 0 0 0 0 0 0 0 0 0
0 0 0 0 0 0 0 0 0 0 0 0 0 0 0 0 0 0 0 0 0 0 0 0 0 0 0 0 0 0 0 0 0 0 0 0 0 0
0 0 0 0 0 0 0 0 0 0 0 0 0 0 0 0 0 0 0 0 0 0 0 0 0 0 0 0 0 0 0 0 0 0 0 0 0 0
0 0 0 0 0 0 0 0 0 0 0 0 0 0 0 0 0 0 0 0 0 0 0 0 0 0 0 0 0 0 0 0 0 0 0 0 0 0
0 0 0 0 0 0 0 0 0 0 0 0 0 0 0 0 0 0 0 0 0 0 0 0 0 0 0 0 0 0 0 0 0 0 0 0 0 0
0 0 0 0 0 0 0 0 0 0 0 0 0 0 0 0 0 0 0 0 0 0 0 0 0 0 0 0 0 0 0 0 0 0 0 0 0 0
0 0 0 0 0 0 0 0 0 0 0 0 0 0 0 0 0 0 0 0 0 0 0 0 0 0 0 0 0 0 0 0 0 0 0 0 0 0
0 0 0 0 0 0 0 0 0 0 0 0 0 0 0 0 0 0 0 0 0 0 0 0 0 0 0 0 0 0 0 0 0 0 0 0 0 0
0 0 0 0 0 0 0 0 0 0 0 0 0 0 0 0 0 0 0 0 0 0 0 0 0 0 0 0 0 0 0 0 0 0 0 0 0 0
0 0 0 0 0 0 0 0 0 0 0 0 0 0 0 0 0 0 0 0 0 0 0 0 0 0 0 0 0 0 0 0 0 0 0 0 0 0
0 0 0 0 0 0 0 0 0 0 0 0 0 0 0 0 0 0 0 0 0 0 0 0 0 0 0 0 0 0 0 0 0 0 0 0 0 0
0 0 0 0 0 0 0 0 0 0 0 0 0 0 0 0 0 0 0 0 0 0 0 0 0 0 0 0 0 0 0 0 0 0 0 0 0 0
0 0 0 0 0 0 0 0 0 0 0 0 0 0 0 0 0 0 0 0 0 0 0 0 0 0 0 0 0 0 0 0 0 0 0 0 0 0
0 0 0 0 0 0 0 0 0 0 0 0 0 0 0 0 0 0 0 0 0 0 0 0 0 0 0 0 0 0 0 0 0 0 0 0 0 0
0 0 0 0 0 0 0 0 0 0 0 0 0 0 0 0 0 0 0 0 0 0 0 0 0 0 0 0 0 0 0 0 0 0 0 0 0 0
0 0 0 0 0 0 0 0 0 0 0 0 0 0 0 0 0 0 0 0 0 0 0 0 0 0 0 0 0 0 0 0 0 0 0 0 0 0
0 0 0 0 0 0 0 0 0 0 0 0 0 0 0 0 0 0 0 0 0 0 0 0 0 0 0 0 0 0 0 0 0 0 0 0 0 0
0 0 0 0 0 0 0 0 0 0 0 0 0 0 0 0 0 0 0 0 0 0 0 0 0 0 0 0 0 0 0 0 0 0 0 0 0 0
0 0 0 0 0 0 0 0 0 0 0 0 0 0 0 0 0 0 0 0 0 0 0 0 0 0 0 0 0 0 0 0 0 0 0 0 0 0
0 0 0 0 0 0 0 0 0 0 0 0 0 0 0 0 0 0 0 0 0 0 0 0 0 0 0 0 0 0 0 0 0 0 0 0 0 0
Wind_Speed
5 5 3 3 3 3 3 4 4 2 4 3 3 2 2 3 7 5 5 13 18 18 19 19 19 19 20 20 21 21 21 22 22 22 23 23 23 23
4 5 4 3 3 3 3 3 3 4 4 3 4 3 4 5 9 6 6 16 17 18 19 20 20 20 20 20 21 21 22 22 22 23 23 23 23 23
5 5 5 4 3 3 3 3 3 3 5 4 3 3 4 5 7 5 6 6 7 17 19 20 20 20 21 21 21 22 22 22 22 22 22 23 23 23
7 6 5 4 4 3 3 4 4 4 4 6 4 3 5 5 6 6 6 6 6 15 19 20 20 21 21 21 21 21 21 21 21 22 22 23 23 23
7 7 6 5 5 4 4 4 4 4 4 5 5 3 4 4 4 6 6 6 7 11 16 17 19 20 21 21 21 21 21 20 21 21 22 22 22 23
6 6 6 7 6 6 5 5 4 4 4 4 5 4 4 4 3 5 6 4 6 7 10 13 16 19 20 21 21 21 20 20 21 21 21 21 21 21
5 5 6 7 8 6 4 5 4 4 3 4 5 4 4 4 4 4 6 6 6 5 5 6 7 7 9 14 18 19 20 20 21 21 21 21 20 20
5 4 4 6 8 9 10 9 7 5 4 4 4 5 6 5 5 5 6 6 6 3 3 6 5 6 7 6 14 20 20 20 20 19 19 19 20 20
5 4 3 4 5 4 7 9 8 10 9 5 5 6 6 5 5 6 5 6 7 5 4 6 4 6 6 9 18 19 18 18 17 18 18 19 19 19
5 5 4 4 4 4 4 4 5 6 7 5 5 6 6 6 5 5 6 6 5 5 4 5 4 5 7 6 14 15 15 16 17 18 18 19 19 19
4 4 4 4 7 7 4 4 5 5 8 10 11 10 12 13 10 4 4 5 6 4 3 3 3 4 5 5 7 13 15 17 18 18 18 18 18 17
2 3 5 5 7 7 4 4 5 5 4 4 6 7 6 7 10 4 3 4 5 4 2 2 3 3 5 3 3 5 7 13 17 18 18 17 17 9
3 3 3 7 8 8 6 4 7 6 2 3 3 3 3 3 4 4 3 4 4 5 3 2 3 3 4 5 4 4 4 5 6 8 12 15 16 12
3 3 3 6 6 7 5 7 10 7 1 2 2 3 3 4 4 4 5 5 5 7 6 4 4 4 4 6 6 4 4 5 5 5 5 11 13 15
2 4 4 5 4 4 6 8 6 2 1 2 3 3 3 4 4 3 4 4 5 5 5 4 5 4 4 6 6 6 6 5 4 4 5 6 6 6
1 1 2 2 2 3 4 3 2 2 2 3 3 3 2 2 3 3 3 2 3 4 4 4 4 4 4 6 7 8 6 5 5 6 6 7 6 5
2 1 1 0 1 1 2 2 2 2 3 2 3 3 3 3 3 2 2 1 2 3 5 4 4 5 7 6 5 6 6 6 6 6 6 8 7 6
2 1 1 1 2 2 2 2 2 3 3 3 3 3 3 3 4 3 2 2 3 3 4 4 4 4 4 4 7 6 5 5 6 6 5 6 8 6
1 1 2 2 2 2 3 3 3 3 3 3 3 3 3 3 3 3 3 2 3 3 4 3 2 2 4 6 6 4 4 6 6 6 5 5 7 9
1 2 2 2 2 2 3 3 3 3 2 3 3 3 3 3 3 3 3 3 3 3 3 3 2 2 3 5 5 6 8 7 6 7 6 6 7 10
2 2 2 2 2 3 3 3 3 3 3 3 3 3 3 3 3 3 3 6 4 2 4 4 5 7 4 3 5 6 6 9 10 7 7 6 6 5
2 3 3 3 3 3 3 3 3 3 3 3 3 3 3 3 4 4 3 3 3 3 4 4 5 3 1 2 5 7 7 8 10 12 10 8 5 5
3 3 3 3 3 2 3 3 4 4 3 3 3 3 3 3 3 3 3 3 3 3 3 3 3 2 2 3 4 5 8 8 6 6 6 10 12 13
Wind_Direction
174 176 177 183 179 180 170 163 169 243 276 269 276 279 269 272 288 291 286 300 307 309 308 307 306 306 307 306 306 304 303 302 301 299 298 297 297 297
169 173 184 182 180 180 183 183 179 190 246 259 253 264 277 285 293 295 287 301 306 307 307 306 304 304 305 304 304 303 303 302 301 300 299 298 298 298
174 181 194 181 182 188 186 190 199 190 239 268 253 265 271 276 289 288 284 283 288 301 304 303 303 303 304 304 305 304 303 303 302 302 302 301 300 299
185 184 197 186 195 195 196 207 212 207 220 266 278 270 263 271 277 284 288 286 280 295 300 302 303 304 305 306 305 305 304 304 304 303 302 301 300 300
185 188 195 187 205 208 210 215 219 223 219 246 273 267 271 274 284 284 281 282 286 291 297 300 302 304 304 306 307 307 307 306 304 303 301 301 301 300
186 190 192 196 208 210 214 219 219 226 229 244 266 273 269 270 269 281 291 278 283 288 289 294 298 303 305 307 308 308 307 305 303 302 302 301 300 299
189 197 203 210 218 218 219 218 212 221 230 244 263 276 278 282 274 270 286 292 281 268 275 285 291 290 294 299 304 303 302 303 303 303 304 304 303 302
194 204 214 220 233 241 248 246 233 228 232 236 255 266 273 269 272 276 285 298 297 266 270 283 278 282 285 282 295 301 303 306 308 309 309 309 307 306
189 194 209 224 236 237 253 259 259 260 260 254 252 258 267 266 272 279 276 279 281 282 282 281 270 276 282 292 302 304 307 313 315 315 313 312 311 310
190 195 204 220 228 234 231 240 248 254 261 259 244 254 258 263 258 271 281 284 272 269 258 275 275 274 289 290 298 303 312 319 321 318 317 315 313 310
194 195 204 217 245 256 241 246 260 264 272 275 277 282 288 295 301 304 301 298 298 287 245 258 281 293 285 277 290 305 314 319 321 320 318 317 315 315
190 208 226 239 257 263 241 237 261 265 259 279 286 294 298 303 310 302 278 285 291 291 268 269 282 309 303 279 277 292 302 310 317 320 319 319 319 319
190 209 229 254 265 271 271 243 265 282 250 255 269 278 286 286 286 278 258 253 269 267 270 278 280 274 270 295 291 277 281 293 306 309 317 320 321 322
196 208 229 257 270 279 281 282 289 299 289 275 276 276 278 280 279 278 272 260 251 259 271 263 261 267 283 290 292 293 296 289 291 296 303 315 319 320
199 225 244 261 274 278 284 293 302 301 282 278 276 272 263 265 275 286 286 283 281 275 273 259 254 267 266 276 287 295 307 300 293 301 305 306 302 306
174 224 268 297 320 305 305 310 305 268 273 261 267 267 273 280 279 278 286 302 310 305 297 286 276 265 267 270 276 287 291 292 302 306 305 300 295 290
140 110 100 121 273 282 286 286 285 294 293 280 280 286 292 296 294 288 275 280 282 295 307 311 304 282 261 262 275 278 285 288 289 301 308 306 298 289
132 158 209 232 246 260 271 278 278 275 273 277 279 280 286 289 292 294 284 273 283 284 290 299 319 328 324 289 243 267 282 285 296 301 299 300 300 298
134 194 223 237 250 257 259 258 262 267 269 271 272 274 278 281 287 290 290 286 286 284 286 291 303 316 320 314 300 271 283 299 303 302 294 288 291 297
191 216 232 240 247 253 256 260 266 273 270 271 270 270 270 272 279 284 283 277 284 288 296 296 285 278 274 291 296 294 296 293 295 298 299 296 283 286
225 234 239 243 247 250 255 257 258 262 263 264 265 265 264 262 268 274 277 289 290 283 289 288 280 303 289 288 290 291 293 299 299 292 296 302 302 301
230 239 245 246 249 250 253 255 259 261 262 258 261 262 261 258 263 267 269 274 275 272 274 282 298 312 300 278 290 297 300 306 310 308 294 280 288 302
235 240 245 249 249 249 248 251 255 259 254 253 257 259 260 261 261 261 262 261 270 281 288 300 311 309 283 273 284 292 299 307 310 316 308 311 309 298